2021-01-05 00:07:44 r, 19.88m,0000000001Hz,0000483973c,0000001.050s, 003.2C,00002191
2021-01-05 00:17:45 r, 19.79m,0000000001Hz,0000449135c,0000000.975s, 002.9C,00002191
2021-01-05 00:27:46 r, 19.72m,0000000001Hz,0000421451c,0000000.915s, 002.5C,00002191
2021-01-05 00:37:44 r, 19.65m,0000000002Hz,0000394618c,0000000.856s, 002.5C,00002191
2021-01-05 00:47:46 r, 19.58m,0000000001Hz,0000368473c,0000000.800s, 002.5C,00002191
2021-01-05 00:57:45 r, 19.50m,0000000001Hz,0000344556c,0000000.748s, 002.5C,00002191
2021-01-05 01:07:44 r, 19.44m,0000000001Hz,0000324502c,0000000.704s, 002.5C,00002191
2021-01-05 01:17:44 r, 19.36m,0000000001Hz,0000306431c,0000000.665s, 002.5C,00002191
2021-01-05 01:27:45 r, 19.30m,0000000001Hz,0000289931c,0000000.629s, 002.2C,00002191
2021-01-05 01:37:44 r, 19.26m,0000000002Hz,0000276560c,0000000.600s, 001.9C,00002191
2021-01-05 01:47:45 r, 19.20m,0000000002Hz,0000261996c,0000000.569s, 001.9C,00002191
2021-01-05 01:57:45 r, 19.15m,0000000002Hz,0000251532c,0000000.546s, 001.9C,00002191
2021-01-05 02:07:44 r, 19.37m,0000000001Hz,0000304515c,0000000.661s, 001.6C,00002191
2021-01-05 02:17:44 r, 19.07m,0000000002Hz,0000232764c,0000000.505s, 001.6C,00002191
2021-01-05 02:27:46 r, 19.06m,0000000002Hz,0000229964c,0000000.499s, 001.2C,00002191
2021-01-05 02:37:44 r, 18.99m,0000000002Hz,0000216651c,0000000.470s, 000.6C,00002191
2021-01-05 02:47:46 r, 18.94m,0000000003Hz,0000207554c,0000000.450s, 000.3C,00002191
2021-01-05 02:57:44 r, 18.92m,0000000003Hz,0000201761c,0000000.438s, 000.1C,00002191
2021-01-05 03:07:44 r, 18.88m,0000000002Hz,0000196095c,0000000.426s, 000.3C,00002191
2021-01-05 03:17:46 r, 19.11m,0000000002Hz,0000238953c,0000000.519s, 000.3C,00002191
2021-01-05 03:27:44 r, 18.78m,0000000003Hz,0000178711c,0000000.388s, 000.3C,00002191
2021-01-05 03:37:44 r, 18.76m,0000000002Hz,0000175756c,0000000.381s, 000.6C,00002191
2021-01-05 03:47:44 r, 18.70m,0000000003Hz,0000165388c,0000000.359s, 000.6C,00002191
2021-01-05 03:57:45 r, 18.66m,0000000003Hz,0000159509c,0000000.346s, 000.6C,00002191
2021-01-05 04:07:44 r, 18.96m,0000000002Hz,0000209178c,0000000.454s, 000.6C,00002191
2021-01-05 04:17:45 r, 18.63m,0000000003Hz,0000156645c,0000000.340s, 000.3C,00002191
2021-01-05 04:27:44 r, 18.77m,0000000003Hz,0000176526c,0000000.383s, 000.3C,00002191
2021-01-05 04:37:44 r, 18.74m,0000000003Hz,0000172707c,0000000.375s, 000.3C,00002191
2021-01-05 04:47:44 r, 18.62m,0000000003Hz,0000153826c,0000000.334s, 000.1C,00002191
2021-01-05 04:57:46 r, 19.14m,0000000002Hz,0000246300c,0000000.535s, 000.1C,00002191
2021-01-05 05:07:44 r, 18.56m,0000000003Hz,0000146214c,0000000.317s,-000.4C,00002191
2021-01-05 05:17:46 r, 18.51m,0000000003Hz,0000138999c,0000000.302s,-000.4C,00002191
2021-01-05 05:27:44 r, 18.41m,0000000003Hz,0000126759c,0000000.275s,-000.4C,00002191
2021-01-05 05:37:44 r, 18.50m,0000000004Hz,0000138061c,0000000.300s,-000.4C,00002191
2021-01-05 05:47:46 r, 18.37m,0000000003Hz,0000122099c,0000000.265s,-000.7C,00002191
2021-01-05 05:57:44 r, 18.41m,0000000004Hz,0000126677c,0000000.275s,-000.7C,00002191
2021-01-05 06:07:44 r, 18.35m,0000000004Hz,0000120107c,0000000.261s,-000.4C,00002191
2021-01-05 06:17:45 r, 18.18m,0000000004Hz,0000103416c,0000000.224s,-000.4C,00002191
2021-01-05 06:27:45 r, 18.44m,0000000003Hz,0000130685c,0000000.284s,-000.4C,00002191
2021-01-05 06:37:44 r, 18.50m,0000000003Hz,0000137410c,0000000.298s, 000.1C,00002191
2021-01-05 06:47:45 r, 18.54m,0000000003Hz,0000143838c,0000000.312s,-000.4C,00002191
2021-01-05 06:57:45 r, 18.49m,0000000003Hz,0000136829c,0000000.297s,-000.4C,00002191
2021-01-05 07:07:44 r, 18.25m,0000000005Hz,0000109075c,0000000.237s,-000.4C,00002191
2021-01-05 07:17:44 r, 17.67m,0000000007Hz,0000064176c,0000000.139s,-000.4C,00002191
2021-01-05 07:27:46 r, 16.49m,0000000021Hz,0000021751c,0000000.047s,-000.4C,00002191
2021-01-05 07:37:44 r, 14.91m,0000000090Hz,0000005071c,0000000.011s,-000.4C,00002191
2021-01-05 07:47:44 r, 13.04m,0000000515Hz,0000000000c,0000000.000s,-000.4C,00002191
2021-01-05 07:57:44 r, 11.21m,0000002775Hz,0000000000c,0000000.000s,-000.4C,00002191
2021-01-05 08:07:44 r, 09.48m,0000013699Hz,0000000000c,0000000.000s,-000.4C,00002191
2021-01-05 08:17:44 r, 08.13m,0000047139Hz,0000000000c,0000000.000s, 000.1C,00002191
2021-01-05 08:27:44 r, 07.28m,0000103848Hz,0000000000c,0000000.000s,-000.4C,00002191
2021-01-05 08:37:44 r, 06.65m,0000184354Hz,0000000000c,0000000.000s, 000.1C,00002191
2021-01-05 08:47:44 r, 06.13m,0000299129Hz,0000000000c,0000000.000s, 000.1C,00002191
2021-01-05 08:57:45 r, 00.00m,0000410109Hz,0000000000c,0000000.000s, 000.1C,00002191
2021-01-05 09:07:44 r, 00.00m,0000599178Hz,0000000000c,0000000.000s, 000.6C,00002191
2021-01-05 09:17:44 r, 00.00m,0000599070Hz,0000000000c,0000000.000s, 001.2C,00002191
2021-01-05 09:27:46 r, 00.00m,0000599043Hz,0000000000c,0000000.000s, 002.2C,00002191
2021-01-05 09:37:44 r, 00.00m,0000599055Hz,0000000000c,0000000.000s, 003.5C,00002191
2021-01-05 09:47:44 r, 00.00m,0000598858Hz,0000000000c,0000000.000s, 004.5C,00002191
2021-01-05 09:57:44 r, 00.00m,0000598748Hz,0000000000c,0000000.000s, 006.1C,00002191
2021-01-05 10:07:44 r, 00.00m,0000598681Hz,0000000000c,0000000.000s, 006.4C,00002191
2021-01-05 10:17:44 r, 00.00m,0000598749Hz,0000000000c,0000000.000s, 006.7C,00002191
2021-01-05 10:27:44 r, 00.00m,0000598708Hz,0000000000c,0000000.000s, 006.7C,00002191
2021-01-05 10:37:44 r, 00.00m,0000598742Hz,0000000000c,0000000.000s, 007.0C,00002191
2021-01-05 10:47:44 r, 00.00m,0000598551Hz,0000000000c,0000000.000s, 008.0C,00002191
2021-01-05 10:57:45 r, 00.00m,0000598663Hz,0000000000c,0000000.000s, 008.7C,00002191
2021-01-05 11:07:44 r, 00.00m,0000598527Hz,0000000000c,0000000.000s, 008.7C,00002191
2021-01-05 11:17:44 r, 00.00m,0000598516Hz,0000000000c,0000000.000s, 008.7C,00002191
2021-01-05 11:27:46 r, 00.00m,0000598456Hz,0000000000c,0000000.000s, 008.3C,00002191
2021-01-05 11:37:44 r, 00.00m,0000598572Hz,0000000000c,0000000.000s, 008.3C,00002191
2021-01-05 11:47:44 r, 00.00m,0000598455Hz,0000000000c,0000000.000s, 008.7C,00002191
2021-01-05 11:57:46 r, 00.00m,0000598249Hz,0000000000c,0000000.000s, 009.6C,00002191
2021-01-05 12:07:44 r, 00.00m,0000598330Hz,0000000000c,0000000.000s, 009.9C,00002191
2021-01-05 12:17:44 r, 00.00m,0000598244Hz,0000000000c,0000000.000s, 010.3C,00002191
2021-01-05 12:27:44 r, 00.00m,0000598371Hz,0000000000c,0000000.000s, 009.9C,00002191
2021-01-05 12:37:44 r, 00.00m,0000598253Hz,0000000000c,0000000.000s, 009.6C,00002191
2021-01-05 12:47:44 r, 00.00m,0000598385Hz,0000000000c,0000000.000s, 009.9C,00002191
2021-01-05 12:57:45 r, 00.00m,0000598347Hz,0000000000c,0000000.000s, 009.9C,00002191
2021-01-05 13:07:44 r, 00.00m,0000598313Hz,0000000000c,0000000.000s, 009.9C,00002191
2021-01-05 13:17:44 r, 00.00m,0000598325Hz,0000000000c,0000000.000s, 009.6C,00002191
2021-01-05 13:27:45 r, 00.00m,0000598424Hz,0000000000c,0000000.000s, 009.3C,00002191
2021-01-05 13:37:44 r, 00.00m,0000598364Hz,0000000000c,0000000.000s, 009.6C,00002191
2021-01-05 13:47:44 r, 00.00m,0000598337Hz,0000000000c,0000000.000s, 009.3C,00002191
2021-01-05 13:57:46 r, 00.00m,0000598427Hz,0000000000c,0000000.000s, 009.6C,00002191
2021-01-05 14:07:44 r, 00.00m,0000598386Hz,0000000000c,0000000.000s, 009.6C,00002191
2021-01-05 14:17:44 r, 00.00m,0000598464Hz,0000000000c,0000000.000s, 009.6C,00002191
2021-01-05 14:27:46 r, 00.00m,0000598347Hz,0000000000c,0000000.000s, 009.9C,00002191
2021-01-05 14:37:44 r, 00.00m,0000598423Hz,0000000000c,0000000.000s, 009.6C,00002191
2021-01-05 14:47:44 r, 00.00m,0000598419Hz,0000000000c,0000000.000s, 009.6C,00002191
2021-01-05 14:57:44 r, 00.00m,0000598370Hz,0000000000c,0000000.000s, 009.9C,00002191
2021-01-05 15:07:45 r, 00.00m,0000598387Hz,0000000000c,0000000.000s, 009.6C,00002191
2021-01-05 15:17:44 r, 00.00m,0000598379Hz,0000000000c,0000000.000s, 009.9C,00002191
2021-01-05 15:27:45 r, 00.00m,0000598307Hz,0000000000c,0000000.000s, 009.9C,00002191
2021-01-05 15:37:44 r, 00.00m,0000598407Hz,0000000000c,0000000.000s, 009.6C,00002191
2021-01-05 15:47:44 r, 00.00m,0000598449Hz,0000000000c,0000000.000s, 009.6C,00002191
2021-01-05 15:57:44 r, 00.00m,0000545282Hz,0000000000c,0000000.000s, 009.3C,00002191
2021-01-05 16:07:46 r, 00.00m,0000436674Hz,0000000000c,0000000.000s, 009.0C,00002191
2021-01-05 16:17:43 r, 06.09m,0000310408Hz,0000000000c,0000000.000s, 009.0C,00002191
2021-01-05 16:27:46 r, 06.51m,0000209551Hz,0000000000c,0000000.000s, 008.7C,00002191
2021-01-05 16:37:44 r, 07.14m,0000117655Hz,0000000000c,0000000.000s, 008.7C,00002191
2021-01-05 16:47:44 r, 07.91m,0000057752Hz,0000000000c,0000000.000s, 008.3C,00002191
2021-01-05 16:57:46 r, 09.09m,0000019608Hz,0000000000c,0000000.000s, 008.3C,00002191
2021-01-05 17:07:44 r, 10.72m,0000004355Hz,0000000000c,0000000.000s, 008.3C,00002191
2021-01-05 17:17:44 r, 12.43m,0000000899Hz,0000000000c,0000000.000s, 008.3C,00002191
2021-01-05 17:27:44 r, 14.24m,0000000170Hz,0000000000c,0000000.000s, 008.3C,00002191
2021-01-05 17:37:46 r, 15.95m,0000000035Hz,0000013225c,0000000.029s, 008.0C,00002191
2021-01-05 17:47:43 r, 17.21m,0000000011Hz,0000042142c,0000000.091s, 008.0C,00002191
2021-01-05 17:57:45 r, 18.09m,0000000004Hz,0000094638c,0000000.205s, 007.7C,00002191
2021-01-05 18:07:44 r, 18.46m,0000000003Hz,0000133407c,0000000.290s, 007.4C,00002191
2021-01-05 18:17:44 r, 18.51m,0000000004Hz,0000138458c,0000000.300s, 007.4C,00002191
2021-01-05 18:27:46 r, 18.45m,0000000003Hz,0000131959c,0000000.286s, 007.4C,00002191
2021-01-05 18:37:44 r, 18.24m,0000000004Hz,0000108774c,0000000.236s, 007.7C,00002191
2021-01-05 18:47:44 r, 18.28m,0000000004Hz,0000112729c,0000000.245s, 007.7C,00002191
2021-01-05 18:57:46 r, 18.28m,0000000004Hz,0000112857c,0000000.245s, 007.4C,00002191
2021-01-05 19:07:44 r, 18.28m,0000000004Hz,0000113071c,0000000.245s, 007.4C,00002191
2021-01-05 19:17:43 r, 18.25m,0000000004Hz,0000109164c,0000000.237s, 007.4C,00002191
2021-01-05 19:27:44 r, 18.26m,0000000004Hz,0000110980c,0000000.241s, 007.4C,00002191
2021-01-05 19:37:45 r, 18.39m,0000000003Hz,0000124304c,0000000.270s, 007.7C,00002191
2021-01-05 19:47:44 r, 18.25m,0000000005Hz,0000109293c,0000000.237s, 007.7C,00002191
2021-01-05 19:57:45 r, 18.14m,0000000005Hz,0000098980c,0000000.215s, 008.0C,00002191
2021-01-05 20:07:44 r, 18.13m,0000000004Hz,0000097329c,0000000.211s, 008.0C,00002191
2021-01-05 20:17:43 r, 18.13m,0000000005Hz,0000098228c,0000000.213s, 008.0C,00002191
2021-01-05 20:27:44 r, 18.23m,0000000004Hz,0000107496c,0000000.233s, 008.3C,00002191
2021-01-05 20:37:46 r, 18.31m,0000000004Hz,0000116157c,0000000.252s, 008.3C,00002191
2021-01-05 20:47:43 r, 18.31m,0000000004Hz,0000115669c,0000000.251s, 008.3C,00002191
2021-01-05 20:57:46 r, 18.24m,0000000005Hz,0000108126c,0000000.235s, 008.7C,00002191
2021-01-05 21:07:44 r, 18.15m,0000000005Hz,0000099879c,0000000.217s, 008.7C,00002191
2021-01-05 21:17:43 r, 18.13m,0000000004Hz,0000097378c,0000000.211s, 009.0C,00002191
2021-01-05 21:27:46 r, 18.14m,0000000005Hz,0000098003c,0000000.213s, 009.0C,00002191
2021-01-05 21:37:44 r, 18.21m,0000000004Hz,0000105180c,0000000.228s, 009.3C,00002191
2021-01-05 21:47:44 r, 18.17m,0000000004Hz,0000100734c,0000000.219s, 009.3C,00002191
2021-01-05 21:57:44 r, 18.16m,0000000005Hz,0000099506c,0000000.216s, 009.3C,00002191
2021-01-05 22:07:45 r, 18.09m,0000000005Hz,0000093207c,0000000.202s, 009.6C,00002191
2021-01-05 22:17:43 r, 18.11m,0000000004Hz,0000095300c,0000000.207s, 009.6C,00002191
2021-01-05 22:27:45 r, 18.28m,0000000004Hz,0000111491c,0000000.242s, 009.6C,00002191
2021-01-05 22:37:44 r, 18.31m,0000000004Hz,0000114797c,0000000.249s, 009.6C,00002191
2021-01-05 22:47:44 r, 18.40m,0000000004Hz,0000124881c,0000000.271s, 009.6C,00002191
2021-01-05 22:57:44 r, 18.51m,0000000003Hz,0000139084c,0000000.302s, 009.6C,00002191
2021-01-05 23:07:46 r, 18.73m,0000000003Hz,0000169489c,0000000.368s, 009.6C,00002191
2021-01-05 23:17:44 r, 18.66m,0000000003Hz,0000159099c,0000000.345s, 009.3C,00002191
2021-01-05 23:27:46 r, 18.67m,0000000003Hz,0000160210c,0000000.348s, 009.6C,00002191
2021-01-05 23:37:44 r, 18.82m,0000000003Hz,0000183356c,0000000.398s, 009.6C,00002191
2021-01-05 23:47:44 r, 18.69m,0000000003Hz,0000163824c,0000000.356s, 009.6C,00002191
2021-01-05 23:57:46 r, 18.68m,0000000003Hz,0000162430c,0000000.352s, 009.3C,00002191
